• In Hungary
  • List of Countries
  • For 7 days
  • Water Temperature
  • Satellite Maps
  • Weather Map
  • News
  • Weather Widgets
  • user-avatar
    Login

    Hourly Weather Karchag

    Today, 17 July, Tuesday

    Time Temperature Precipitation Wind Pressure Humidity
    00:00 +23°C° 0 mm 2 mps 728 mmHg 75%
    01:00 +23°C° 0 mm 2 mps 728 mmHg 73%
    02:00 +23°C° 0 mm 2 mps 728 mmHg 71%
    03:00 +23°C° 0 mm 2 mps 728 mmHg 64%
    04:00 +23°C° 0 mm 2 mps 728 mmHg 63%
    05:00 +24°C° 0 mm 2 mps 729 mmHg 62%
    06:00 +25°C° 0 mm 2 mps 729 mmHg 61%
    07:00 +26°C° 0 mm 2 mps 729 mmHg 57%
    08:00 +27°C° 0 mm 2 mps 729 mmHg 53%
    09:00 +29°C° 0 mm 3 mps 729 mmHg 51%
    10:00 +29°C° 0 mm 3 mps 729 mmHg 49%
    11:00 +30°C° 0 mm 3 mps 729 mmHg 48%
    12:00 +32°C° 0 mm 4 mps 729 mmHg 47%
    13:00 +32°C° 0.1 mm 4 mps 729 mmHg 48%
    14:00 +32°C° 0.1 mm 4 mps 729 mmHg 50%
    15:00 +32°C° 0.1 mm 4 mps 728 mmHg 51%
    16:00 +30°C° 0.3 mm 3 mps 728 mmHg 56%
    17:00 +29°C° 0.3 mm 3 mps 728 mmHg 61%
    18:00 +27°C° 0.3 mm 2 mps 728 mmHg 66%
    19:00 +26°C° 0.1 mm 2 mps 729 mmHg 71%
    20:00 +25°C° 0.1 mm 2 mps 729 mmHg 76%
    21:00 +23°C° 0.1 mm 1 mps 729 mmHg 81%
    22:00 +23°C° 0 mm 1 mps 729 mmHg 77%
    23:00 +23°C° 0 mm 1 mps 729 mmHg 74%

    Tomorrow, 18 July, Wednesday

    Time Temperature Precipitation Wind Pressure Humidity
    00:00 +23°C° 0 mm 1 mps 729 mmHg 70%
    01:00 +23°C° 0 mm 1 mps 729 mmHg 68%
    02:00 +23°C° 0 mm 1 mps 729 mmHg 65%
    03:00 +23°C° 0 mm 1 mps 729 mmHg 63%
    04:00 +24°C° 0 mm 1 mps 729 mmHg 61%
    05:00 +25°C° 0 mm 1 mps 729 mmHg 59%
    06:00 +26°C° 0 mm 1 mps 729 mmHg 57%
    07:00 +27°C° 0 mm 1 mps 729 mmHg 54%
    08:00 +29°C° 0 mm 2 mps 729 mmHg 51%
    09:00 +31°C° 0 mm 2 mps 729 mmHg 48%
    10:00 +31°C° 0 mm 3 mps 729 mmHg 46%
    11:00 +33°C° 0 mm 4 mps 728 mmHg 45%
    12:00 +34°C° 0 mm 4 mps 728 mmHg 43%
    13:00 +34°C° 0 mm 4 mps 728 mmHg 45%
    14:00 +34°C° 0 mm 4 mps 727 mmHg 47%
    15:00 +33°C° 0 mm 4 mps 727 mmHg 49%
    16:00 +32°C° 0 mm 4 mps 727 mmHg 54%
    17:00 +31°C° 0 mm 3 mps 727 mmHg 59%
    18:00 +30°C° 0 mm 2 mps 727 mmHg 64%
    19:00 +28°C° 0 mm 2 mps 727 mmHg 65%
    20:00 +27°C° 0 mm 2 mps 727 mmHg 67%
    21:00 +25°C° 0 mm 1 mps 727 mmHg 68%
    22:00 +25°C° 0 mm 1 mps 727 mmHg 63%
    23:00 +25°C° 0 mm 1 mps 727 mmHg 57%

    Day after tomorrow, 19 July, Thursday

    Time Temperature Precipitation Wind Pressure Humidity
    00:00 +25°C° 0 mm 2 mps 727 mmHg 52%
    01:00 +25°C° 0 mm 2 mps 727 mmHg 50%
    02:00 +25°C° 0 mm 2 mps 727 mmHg 47%
    03:00 +25°C° 0 mm 2 mps 727 mmHg 45%
    04:00 +26°C° 0 mm 1 mps 726 mmHg 45%
    05:00 +27°C° 0 mm 1 mps 726 mmHg 46%
    06:00 +28°C° 0 mm 1 mps 726 mmHg 46%
    07:00 +30°C° 0 mm 2 mps 726 mmHg 44%
    08:00 +32°C° 0 mm 2 mps 726 mmHg 42%
    09:00 +35°C° 0 mm 2 mps 726 mmHg 40%
    10:00 +35°C° 0 mm 2 mps 726 mmHg 41%
    11:00 +36°C° 0 mm 3 mps 726 mmHg 41%
    12:00 +37°C° 0 mm 3 mps 726 mmHg 41%
    13:00 +37°C° 0 mm 3 mps 726 mmHg 42%
    14:00 +37°C° 0 mm 3 mps 725 mmHg 43%
    15:00 +37°C° 0 mm 3 mps 725 mmHg 44%
    16:00 +36°C° 0 mm 3 mps 725 mmHg 49%
    17:00 +34°C° 0 mm 2 mps 725 mmHg 53%
    18:00 +32°C° 0 mm 2 mps 725 mmHg 58%
    19:00 +31°C° 0 mm 2 mps 726 mmHg 62%
    20:00 +29°C° 0 mm 2 mps 726 mmHg 66%
    21:00 +27°C° 0 mm 2 mps 726 mmHg 71%
    22:00 +27°C° 0 mm 2 mps 726 mmHg 67%
    23:00 +27°C° 0 mm 2 mps 726 mmHg 64%

    20 July, Friday

    Time Temperature Precipitation Wind Pressure Humidity
    00:00 +27°C° 0 mm 2 mps 726 mmHg 61%
    01:00 +27°C° 0 mm 2 mps 726 mmHg 58%
    02:00 +27°C° 0 mm 2 mps 726 mmHg 56%
    03:00 +27°C° 0 mm 3 mps 726 mmHg 53%
    04:00 +28°C° 0 mm 2 mps 726 mmHg 51%
    05:00 +29°C° 0 mm 2 mps 726 mmHg 50%
    06:00 +30°C° 0 mm 2 mps 727 mmHg 48%
    07:00 +31°C° 0 mm 3 mps 727 mmHg 46%
    08:00 +34°C° 0 mm 3 mps 727 mmHg 43%
    09:00 +36°C° 0 mm 4 mps 727 mmHg 41%
    10:00 +36°C° 0 mm 4 mps 727 mmHg 41%
    11:00 +37°C° 0 mm 4 mps 727 mmHg 40%
    12:00 +37°C° 0 mm 5 mps 727 mmHg 40%
    13:00 +37°C° 0 mm 4 mps 726 mmHg 42%
    14:00 +37°C° 0 mm 4 mps 726 mmHg 43%
    15:00 +36°C° 0 mm 4 mps 726 mmHg 44%
    16:00 +35°C° 0.1 mm 3 mps 726 mmHg 48%
    17:00 +34°C° 0.1 mm 3 mps 726 mmHg 52%
    18:00 +32°C° 0.1 mm 2 mps 726 mmHg 55%
    19:00 +31°C° 0 mm 2 mps 726 mmHg 59%
    20:00 +29°C° 0 mm 2 mps 726 mmHg 62%
    21:00 +28°C° 0 mm 2 mps 726 mmHg 66%
    22:00 +28°C° 0 mm 2 mps 726 mmHg 64%
    23:00 +28°C° 0 mm 2 mps 726 mmHg 63%

    21 July, Saturday

    Time Temperature Precipitation Wind Pressure Humidity
    00:00 +28°C° 0 mm 2 mps 726 mmHg 61%
    01:00 +28°C° 0 mm 2 mps 726 mmHg 60%
    02:00 +28°C° 0 mm 2 mps 726 mmHg 59%
    03:00 +27°C° 0 mm 2 mps 726 mmHg 58%
    04:00 +28°C° 0 mm 2 mps 726 mmHg 58%
    05:00 +29°C° 0 mm 2 mps 726 mmHg 58%
    06:00 +30°C° 0 mm 2 mps 726 mmHg 58%
    07:00 +32°C° 0 mm 2 mps 726 mmHg 52%
    08:00 +34°C° 0 mm 3 mps 726 mmHg 47%
    09:00 +36°C° 0 mm 3 mps 726 mmHg 41%
    10:00 +37°C° 0 mm 4 mps 726 mmHg 40%
    11:00 +37°C° 0 mm 4 mps 726 mmHg 38%
    12:00 +39°C° 0 mm 5 mps 726 mmHg 37%
    13:00 +39°C° 0.1 mm 5 mps 726 mmHg 38%
    14:00 +37°C° 0.1 mm 5 mps 726 mmHg 40%
    15:00 +37°C° 0.1 mm 5 mps 726 mmHg 41%
    16:00 +36°C° 0.1 mm 4 mps 726 mmHg 44%
    17:00 +35°C° 0.1 mm 4 mps 726 mmHg 47%
    18:00 +34°C° 0.1 mm 3 mps 726 mmHg 50%
    19:00 +31°C° 0 mm 3 mps 726 mmHg 54%
    20:00 +30°C° 0 mm 3 mps 726 mmHg 59%
    21:00 +28°C° 0 mm 3 mps 727 mmHg 63%
    22:00 +28°C° 0 mm 3 mps 727 mmHg 62%
    23:00 +28°C° 0 mm 3 mps 727 mmHg 61%

    22 July, Sunday

    Time Temperature Precipitation Wind Pressure Humidity
    00:00 +28°C° 0 mm 3 mps 726 mmHg 61%
    01:00 +27°C° 0 mm 3 mps 726 mmHg 60%
    02:00 +27°C° 0 mm 3 mps 726 mmHg 59%
    03:00 +27°C° 0 mm 3 mps 726 mmHg 58%
    04:00 +28°C° 0 mm 3 mps 726 mmHg 56%
    05:00 +29°C° 0 mm 3 mps 727 mmHg 55%
    06:00 +30°C° 0 mm 3 mps 727 mmHg 54%
    07:00 +32°C° 0 mm 4 mps 727 mmHg 51%
    08:00 +33°C° 0 mm 5 mps 727 mmHg 48%
    09:00 +34°C° 0 mm 6 mps 728 mmHg 46%
    10:00 +35°C° 0.1 mm 6 mps 727 mmHg 45%
    11:00 +35°C° 0.1 mm 5 mps 727 mmHg 45%
    12:00 +36°C° 0.1 mm 5 mps 727 mmHg 44%
    13:00 +36°C° 0.1 mm 5 mps 727 mmHg 44%
    14:00 +36°C° 0.1 mm 5 mps 726 mmHg 45%
    15:00 +36°C° 0.1 mm 4 mps 726 mmHg 45%
    16:00 +34°C° 0.1 mm 4 mps 726 mmHg 49%
    17:00 +33°C° 0.1 mm 3 mps 726 mmHg 52%
    18:00 +31°C° 0.1 mm 2 mps 726 mmHg 56%
    19:00 +30°C° 0 mm 2 mps 727 mmHg 61%
    20:00 +28°C° 0 mm 2 mps 727 mmHg 66%
    21:00 +27°C° 0 mm 2 mps 727 mmHg 70%
    22:00 +27°C° 0 mm 2 mps 727 mmHg 68%
    23:00 +27°C° 0 mm 2 mps 727 mmHg 66%
    Show more